Regional Weather Roundup
Issued by NWS

Home | Current Version | Previous Version | Graphics & Text | Print | Product List | Glossary On
Versions: 1 2 3 4 5 6 7 8 9 10 11 12 13 14 15 16 17 18 19 20 21 22 23 24 25 26 27 28 29 30 31 32 33 34 35 36 37 38 39 40 41 42 43 44 45 46 47 48 49 50
000
ASUS45 KSLC 041010
RWRUT

UTAH REGIONAL WEATHER ROUNDUP
NATIONAL WEATHER SERVICE SALT LAKE CITY UT
400 AM MDT MON MAY 04 2015

UTZ001>011-023>025-041100-

NORTHERN UTAH

CITY           SKY/WX    TMP DP  RH WIND       PRES   REMARKS
BRIGHAM CITY   MOCLDY    54  43  65 CALM      29.94S
HILL AFB       CLOUDY    59  41  51 SE9       29.94S
LOGAN          CLEAR     48  41  76 CALM      29.95S
OGDEN          MOCLDY    60  41  49 SE7       29.92S
PROVO AIRPORT  CLOUDY    57  46  67 W6        29.97S
SALT LAKE CITY CLOUDY    60  45  57 SE15      29.93S
VERNAL         PTCLDY    47  37  68 W5        30.01S
WENDOVER       MOCLDY    55  36  47 E7        29.91S
HEBER CITY     CLOUDY    52  41  66 CALM      30.02S
WEST JORDAN    CLOUDY    57  48  72 SE5       29.97F

$$

UTZ012>022-026-027-041100-

SOUTHERN/CENTRAL UTAH

CITY           SKY/WX    TMP DP  RH WIND       PRES   REMARKS
BLANDING       MOCLDY    47  37  65 NE8       30.08F
BRYCE CANYON   CLOUDY    40  35  83 NW3       30.07F
CEDAR CITY     CLOUDY    53  38  56 NW3       30.00R
DELTA          CLOUDY    58  42  54 S7        29.95F
HANKSVILLE     CLOUDY    55  37  50 NW6       29.96R
MILFORD        MOCLDY    54  37  52 N7        29.97R
MOAB/CYNLANDS  MOCLDY    59  41  51 E12       29.93S
PRICE          MOCLDY    52  39  61 N12       30.01F
ST GEORGE      CLOUDY    66  39  37 S6        29.90S
KANAB          MOCLDY    48  39  71 CALM      30.02S

$$

REGIONAL REPORTS     COLORADO/ARIZONA

CITY           SKY/WX    TMP DP  RH WIND       PRES   REMARKS
CRAIG, CO      CLOUDY    44  41  89 CALM      30.05F
GRAND JUNCTION PTCLDY    54  42  64 E16       29.99F
RIFLE          MOCLDY    49  46  90 E5        30.05F
MONTROSE       MOCLDY    46  38  73 SE5       30.06S
CORTEZ         CLOUDY    43  35  73 E3        30.04F
PAGE, AZ       MOCLDY    59  39  47 SW5       29.94S
GRAND CANYON   CLEAR     32  31  96 NE3       30.05F
KINGMAN        CLEAR     60  39  45 SW7       29.87F
FLAGSTAFF      MOCLDY    46  40  79 S7        30.06F

$$

REGIONAL REPORTS    NEVADA/IDAHO/WYOMING

CITY           SKY/WX    TMP DP  RH WIND       PRES   REMARKS
LAS VEGAS, NV  PTCLDY    73  29  19 S10       29.73F
ELY            CLOUDY    52  35  52 S10       30.00S
ELKO           PTCLDY    43  33  68 CALM      29.94S
POCATELLO, ID  CLEAR     49  38  65 S6        29.94R
BURLEY         PTCLDY    46  40  79 CALM      29.90R
EVANSTON, WY   MOCLDY    43  37  79 E8        30.07S
ROCK SPRINGS   PTCLDY    44  36  73 CALM      30.06F
KEMMERER       PTCLDY    36  34  93 N9        30.08S WCI  29

$$



USA.gov is the U.S. government's official web portal to all federal, state and local government web resources and services.